Regional Weather Roundup
Issued by NWS

Home | Current Version | Previous Version | Graphics & Text | Print | Product List | Glossary Off
Versions: 1 2 3 4 5 6 7 8 9 10 11 12 13 14 15 16 17 18 19 20 21 22 23 24 25 26 27 28 29 30 31 32 33 34 35 36 37 38 39 40 41 42 43 44 45 46 47 48 49 50

000
ASUS43 KTOP 172059
RWRKS

WEATHER ROUNDUP FOR KANSAS
NATIONAL WEATHER SERVICE GOODLAND KS
400 PM CDT TUE OCT 17 2017

NOTE:  "FAIR" INDICATES FEW OR NO CLOUDS BELOW 12,000 FEET WITH NO
SIGNIFICANT WEATHER AND/OR OBSTRUCTIONS TO VISIBILITY.

KSZ001>006-013>018-027>032-041>047-172200-
NORTHWEST KANSAS

CITY           SKY/WX    TMP DP  RH WIND       PRES   REMARKS
GOODLAND       SUNNY     79  21  11 MISG      30.06F HAZE
HAYS           SUNNY     81  36  19 SE5       30.02F
HILL CITY      SUNNY     81  32  17 S3        30.03F
RUSSELL        SUNNY     80  43  26 S9        30.01F
$$

KSZ061>065-074>080-084>089-172200-
SOUTHWEST KANSAS

CITY           SKY/WX    TMP DP  RH WIND       PRES   REMARKS
DODGE CITY     SUNNY     79  38  22 S13       30.05F
ELKHART          N/A     76  43  31 S3          N/A
GARDEN CITY    SUNNY     81  34  18 S9G18     30.03F
GREAT BEND     SUNNY     79  45  29 S10       30.03F
LIBERAL        SUNNY     79  40  24 S15       30.04F
$$

KSZ066>073-081>083-090>101-172200-
SOUTHEAST KANSAS

CITY           SKY/WX    TMP DP  RH WIND       PRES   REMARKS
CHANUTE        LGT RAIN  71  47  42 S18       30.13F
COFFEYVILLE    SUNNY     71  47  42 S12       30.14F
HUTCHINSON     SUNNY     76  45  33 S20       30.06F
MEDICINE LODGE   N/A     78  38  23 MISG      30.05
NEWTON         SUNNY     72  46  39 SW20      30.08F
PARSONS        SUNNY     71  46  40 S9        30.15F
WICHITA INTL   MOSUNNY   73  46  38 S18       30.08F
WICHITA JABRA  SUNNY     72  45  37 S12G23    30.08F
WICHITA MCCONL SUNNY     73  45  35 SW16      30.09F
WINFIELD       SUNNY     72  45  37 S17       30.12F
$$

KSZ007>012-019>026-033>040-048>060-102>105-172200-
NORTHEAST KANSAS

CITY           SKY/WX    TMP DP  RH WIND       PRES   REMARKS
CONCORDIA      SUNNY     74  46  36 S8        30.03F
EMPORIA        SUNNY     74  43  32 S18G28    30.08F
LAWRENCE       SUNNY     73  47  39 S14G21    30.08F
MANHATTAN      SUNNY     76  48  37 SW12      30.04F
OLATHE IND     SUNNY     71  46  40 S15G23    30.11F
OLATHE EXE     SUNNY     69  46  43 S16G22    30.11F
SALINA         SUNNY     78  48  34 S15       30.03F
TOPEKA BILLARD SUNNY     75  46  35 S15G22    30.06F
TOPEKA FORBES  SUNNY     76  46  34 S15G22    30.06F
$$



USA.gov is the U.S. government's official web portal to all federal, state and local government web resources and services.